Satellite: RESURS Catalog number: 25394 Epoch time: 09189.72868653 Element set: 255 Inclination: 098.3372 deg RA of node: 220.9779 deg Eccentricity: 0.0001904 Arg of perigee: 118.7429 deg Mean anomaly: 241.3941 deg Mean motion: 14.24185348 rev/day Decay rate: -1.4e-07 rev/day^2 Epoch rev: 57146 Checksum: 324
Satellite: FENGYUN1 Catalog number: 25730 Epoch time: 09189.95775621 Element set: 0854 Inclination: 098.7547 deg RA of node: 159.4679 deg Eccentricity: 0.0020856 Arg of perigee: 150.5139 deg Mean anomaly: 209.7212 deg Mean motion: 14.07911638 rev/day Decay rate: 3.14e-06 rev/day^2 Epoch rev: 52338 Checksum: 331
Satellite: OKEAN-0 Catalog number: 25860 Epoch time: 09189.49314704 Element set: 0726 Inclination: 097.7867 deg RA of node: 169.8268 deg Eccentricity: 0.0001802 Arg of perigee: 085.1748 deg Mean anomaly: 274.9657 deg Mean motion: 14.73579500 rev/day Decay rate: 1.9e-07 rev/day^2 Epoch rev: 53628 Checksum: 349
Satellite: NOAA-16 Catalog number: 26536 Epoch time: 09190.32184123 Element set: 476 Inclination: 099.1750 deg RA of node: 194.5230 deg Eccentricity: 0.0010005 Arg of perigee: 214.8247 deg Mean anomaly: 145.2269 deg Mean motion: 14.12524837 rev/day Decay rate: -1.29e-06 rev/day^2 Epoch rev: 45342 Checksum: 285
Satellite: NOAA-17 Catalog number: 27453 Epoch time: 09190.27335160 Element set: 478 Inclination: 098.4824 deg RA of node: 248.5815 deg Eccentricity: 0.0012599 Arg of perigee: 062.9225 deg Mean anomaly: 297.3283 deg Mean motion: 14.24075734 rev/day Decay rate: 1.79e-06 rev/day^2 Epoch rev: 36589 Checksum: 343
Satellite: NOAA-18 Catalog number: 28654 Epoch time: 09190.23806407 Element set: 969 Inclination: 098.9071 deg RA of node: 133.3075 deg Eccentricity: 0.0013482 Arg of perigee: 303.6542 deg Mean anomaly: 056.3351 deg Mean motion: 14.11270431 rev/day Decay rate: 1.87e-06 rev/day^2 Epoch rev: 21306 Checksum: 289
Satellite: NOAA-19 Catalog number: 33591 Epoch time: 09190.22285177 Element set: 171 Inclination: 098.7457 deg RA of node: 135.4117 deg Eccentricity: 0.0014014 Arg of perigee: 176.7279 deg Mean anomaly: 183.3998 deg Mean motion: 14.10968609 rev/day Decay rate: -1.59e-06 rev/day^2 Epoch rev: 2154 Checksum: 327
/EX SB KEPS @ AMSAT $ORB09190.M Orbital Elements 09190.MISC
HR AMSAT ORBITAL ELEMENTS FOR MANNED AND MISCELLANEOUS SATELLITES FROM WA5QGD FORT WORTH,TX July 9, 2009 Send Subscribe/unsubscribe to KEPS at http://www.amsat.org/mailman/listinfo/keps BID: ORB09190.M TO ALL RADIO AMATEURS BT
Satellite: HUBBLE Catalog number: 20580 Epoch time: 09187.79703538 Element set: 0417 Inclination: 028.4707 deg RA of node: 334.3116 deg Eccentricity: 0.0003564 Arg of perigee: 130.6996 deg Mean anomaly: 229.3951 deg Mean motion: 15.00813792 rev/day Decay rate: 3.33e-06 rev/day^2 Epoch rev: 85280 Checksum: 303
Satellite: ISS Catalog number: 25544 Epoch time: 09190.47815954 Element set: 186 Inclination: 051.6377 deg RA of node: 192.4343 deg Eccentricity: 0.0007541 Arg of perigee: 202.7089 deg Mean anomaly: 294.2643 deg Mean motion: 15.74256637 rev/day Decay rate: 7.291e-05 rev/day^2 Epoch rev: 60946 Checksum: 325
Satellite: CO-58 Catalog number: 28895 Epoch time: 09189.24414665 Element set: 342 Inclination: 098.0565 deg RA of node: 079.2698 deg Eccentricity: 0.0016844 Arg of perigee: 283.5757 deg Mean anomaly: 076.3568 deg Mean motion: 14.59779218 rev/day Decay rate: -4.8e-07 rev/day^2 Epoch rev: 19680 Checksum: 383
Satellite: FALCON Catalog number: 30776 Epoch time: 09190.74676714 Element set: 609 Inclination: 035.4349 deg RA of node: 322.5359 deg Eccentricity: 0.0000431 Arg of perigee: 038.5985 deg Mean anomaly: 321.4761 deg Mean motion: 15.03266693 rev/day Decay rate: 1.79e-06 rev/day^2 Epoch rev: 12849 Checksum: 317
Satellite: MAST Catalog number: 31126 Epoch time: 09188.68652982 Element set: 634 Inclination: 097.9875 deg RA of node: 242.5524 deg Eccentricity: 0.0093865 Arg of perigee: 215.8053 deg Mean anomaly: 143.6825 deg Mean motion: 14.53504423 rev/day Decay rate: -5.2e-07 rev/day^2 Epoch rev: 11801 Checksum: 311
Satellite: CAPE1 Catalog number: 31130 Epoch time: 09190.81285434 Element set: 644 Inclination: 097.9894 deg RA of node: 242.7145 deg Eccentricity: 0.0101896 Arg of perigee: 214.7488 deg Mean anomaly: 144.6947 deg Mean motion: 14.52070637 rev/day Decay rate: -2.3e-07 rev/day^2 Epoch rev: 11797 Checksum: 318
Satellite: COMPASS Catalog number: 32787 Epoch time: 09189.30780441 Element set: 0413 Inclination: 097.9421 deg RA of node: 252.9531 deg Eccentricity: 0.0014999 Arg of perigee: 327.7561 deg Mean anomaly: 032.2729 deg Mean motion: 14.81623155 rev/day Decay rate: 8.8e-07 rev/day^2 Epoch rev: 06457 Checksum: 320
Satellite: AAUSAT2 Catalog number: 32788 Epoch time: 09190.75956404 Element set: 403 Inclination: 097.9409 deg RA of node: 254.4548 deg Eccentricity: 0.0015052 Arg of perigee: 324.5717 deg Mean anomaly: 035.4461 deg Mean motion: 14.81746920 rev/day Decay rate: 1.36e-06 rev/day^2 Epoch rev: 6479 Checksum: 318
Satellite: DO-64 Catalog number: 32789 Epoch time: 09189.76844975 Element set: 0418 Inclination: 097.9451 deg RA of node: 253.6469 deg Eccentricity: 0.0015124 Arg of perigee: 325.8266 deg Mean anomaly: 034.1968 deg Mean motion: 14.81738980 rev/day Decay rate: 3.17e-06 rev/day^2 Epoch rev: 06464 Checksum: 365
Satellite: CO-66 Catalog number: 32791 Epoch time: 09189.42062056 Element set: 0397 Inclination: 097.9435 deg RA of node: 253.0983 deg Eccentricity: 0.0015837 Arg of perigee: 326.1756 deg Mean anomaly: 033.8450 deg Mean motion: 14.81451673 rev/day Decay rate: 3.44e-06 rev/day^2 Epoch rev: 06455 Checksum: 330
Satellite: RS-30 Catalog number: 32953 Epoch time: 09189.68054717 Element set: 349 Inclination: 082.5003 deg RA of node: 243.2466 deg Eccentricity: 0.0020363 Arg of perigee: 129.5336 deg Mean anomaly: 230.7549 deg Mean motion: 12.43002104 rev/day Decay rate: 1.0e-07 rev/day^2 Epoch rev: 5106 Checksum: 265
Satellite: TACSAT-3 Catalog number: 35001 Epoch time: 09190.85970969 Element set: 45 Inclination: 040.4555 deg RA of node: 105.0666 deg Eccentricity: 0.0025860 Arg of perigee: 328.1992 deg Mean anomaly: 031.7275 deg Mean motion: 15.38900739 rev/day Decay rate: 1.329e-05 rev/day^2 Epoch rev: 784 Checksum: 308
Satellite: PHARMSAT Catalog number: 35002 Epoch time: 09190.89901637 Element set: 45 Inclination: 040.4691 deg RA of node: 104.5199 deg Eccentricity: 0.0028727 Arg of perigee: 334.3141 deg Mean anomaly: 025.6287 deg Mean motion: 15.39668821 rev/day Decay rate: 1.140e-05 rev/day^2 Epoch rev: 784 Checksum: 291
Satellite: HAWKSAT1 Catalog number: 35003 Epoch time: 09190.89039901 Element set: 46 Inclination: 040.4695 deg RA of node: 104.4631 deg Eccentricity: 0.0029521 Arg of perigee: 334.1920 deg Mean anomaly: 025.7422 deg Mean motion: 15.39915105 rev/day Decay rate: 8.66e-06 rev/day^2 Epoch rev: 785 Checksum: 278
Satellite: CP6 Catalog number: 35004 Epoch time: 09189.91212614 Element set: 39 Inclination: 040.4605 deg RA of node: 110.1985 deg Eccentricity: 0.0029359 Arg of perigee: 328.6995 deg Mean anomaly: 031.2082 deg Mean motion: 15.40164192 rev/day Decay rate: 2.455e-05 rev/day^2 Epoch rev: 769 Checksum: 292
Satellite: AEROCUB3 Catalog number: 35005 Epoch time: 09189.91815909 Element set: 0050 Inclination: 040.4747 deg RA of node: 110.3100 deg Eccentricity: 0.0029207 Arg of perigee: 327.3322 deg Mean anomaly: 032.5681 deg Mean motion: 15.39990238 rev/day Decay rate: 2.567e-05 rev/day^2 Epoch rev: 00769 Checksum: 288
/EX
participants (1)
-
Ray Hoad